| time (UTC) | temp F | wind direction | speed MPH | gust MPH | rain 1hr in | rain 24hr in | rain mn in | humidity % | barometer mb |
| 20260831211921 | 76 | 0.0 | 0.0 | 0.00 | 0.00 | 0.00 | 61 | 1017.9 | |
| 20260831210941 | 76 | 0.0 | 0.0 | 0.00 | 0.00 | 0.00 | 58 | 1018.0 | |
| 20260831205947 | 76 | 297 | 1.0 | 2.0 | 0.00 | 0.00 | 0.00 | 56 | 1017.9 |
| 20260831204947 | 77 | 348 | 1.0 | 2.0 | 0.00 | 0.00 | 0.00 | 55 | 1018.2 |
| 20260831203921 | 77 | 328 | 1.0 | 2.0 | 0.00 | 0.00 | 0.00 | 56 | 1018.0 |
| 20260831202926 | 76 | 296 | 1.0 | 2.0 | 0.00 | 0.00 | 0.00 | 57 | 1018.1 |
| 20260831201938 | 76 | 327 | 0.0 | 1.0 | 0.00 | 0.00 | 0.00 | 59 | 1018.1 |
| 20260831200940 | 76 | 287 | 1.0 | 2.0 | 0.00 | 0.00 | 0.00 | 59 | 1018.1 |
| 20260831195957 | 75 | 0.0 | 1.0 | 0.00 | 0.00 | 0.00 | 61 | 1018.1 | |
| 20260831194923 | 75 | 270 | 1.0 | 2.0 | 0.00 | 0.00 | 0.00 | 59 | 1018.3 |
| 20260831193943 | 76 | 251 | 1.0 | 2.0 | 0.00 | 0.00 | 0.00 | 57 | 1018.4 |
| 20260831192929 | 76 | 283 | 1.0 | 1.0 | 0.00 | 0.00 | 0.00 | 59 | 1018.4 |
| 20260831192008 | 75 | 276 | 1.0 | 1.0 | 0.00 | 0.00 | 0.00 | 61 | 1018.6 |
| 20260831190934 | 74 | 269 | 1.0 | 2.0 | 0.00 | 0.00 | 0.00 | 61 | 1018.5 |
| 20260831185920 | 75 | 280 | 1.0 | 1.0 | 0.00 | 0.00 | 0.00 | 60 | 1018.9 |
| 20260831184959 | 75 | 261 | 2.0 | 3.0 | 0.00 | 0.00 | 0.00 | 59 | 1018.8 |
| 20260831183958 | 74 | 287 | 0.0 | 3.0 | 0.00 | 0.00 | 0.00 | 60 | 1019.1 |
| 20260831182944 | 75 | 258 | 1.0 | 2.0 | 0.00 | 0.00 | 0.00 | 60 | 1019.1 |
| 20260831181930 | 74 | 278 | 1.0 | 2.0 | 0.00 | 0.00 | 0.00 | 60 | 1019.2 |
| 20260831181029 | 74 | 277 | 0.0 | 1.0 | 0.00 | 0.00 | 0.00 | 60 | 1019.0 |
| 20260831180015 | 75 | 277 | 1.0 | 2.0 | 0.00 | 0.00 | 0.00 | 59 | 1019.2 |
| 20260831174954 | 74 | 271 | 2.0 | 3.0 | 0.00 | 0.00 | 0.00 | 58 | 1019.1 |
| 20260831173939 | 75 | 263 | 0.0 | 2.0 | 0.00 | 0.00 | 0.00 | 58 | 1019.3 |
| 20260831172926 | 74 | 281 | 1.0 | 2.0 | 0.00 | 0.00 | 0.00 | 58 | 1019.4 |
| 20260831171945 | 73 | 0.0 | 0.0 | 0.00 | 0.00 | 0.00 | 60 | 1019.3 | |
| 20260831170951 | 74 | 290 | 1.0 | 2.0 | 0.00 | 0.00 | 0.00 | 59 | 1019.4 |
| 20260831165950 | 73 | 273 | 1.0 | 2.0 | 0.00 | 0.00 | 0.00 | 58 | 1019.7 |
| 20260831164936 | 73 | 0.0 | 1.0 | 0.00 | 0.00 | 0.00 | 62 | 1019.6 | |
| 20260831163955 | 73 | 259 | 0.0 | 2.0 | 0.00 | 0.00 | 0.00 | 60 | 1019.8 |
| 20260831162940 | 72 | 357 | 1.0 | 1.0 | 0.00 | 0.00 | 0.00 | 61 | 1019.9 |
| 20260831161926 | 72 | 0.0 | 2.0 | 0.00 | 0.00 | 0.00 | 62 | 1019.9 | |
| 20260831160944 | 72 | 237 | 1.0 | 2.0 | 0.00 | 0.00 | 0.00 | 64 | 1020.2 |
| 20260831155948 | 71 | 260 | 2.0 | 3.0 | 0.00 | 0.00 | 0.00 | 61 | 1020.1 |
| 20260831154947 | 70 | 0.0 | 0.0 | 0.00 | 0.00 | 0.00 | 64 | 1020.1 | |
| 20260831153932 | 70 | 335 | 1.0 | 2.0 | 0.00 | 0.00 | 0.00 | 68 | 1020.1 |
| 20260831153011 | 70 | 0.0 | 0.0 | 0.00 | 0.00 | 0.00 | 68 | 1020.4 | |
| 20260831151955 | 69 | 0.0 | 1.0 | 0.00 | 0.00 | 0.00 | 67 | 1020.4 | |
| 20260831150954 | 69 | 325 | 1.0 | 2.0 | 0.00 | 0.00 | 0.00 | 71 | 1020.4 |
| 20260831145939 | 68 | 301 | 0.0 | 2.0 | 0.00 | 0.00 | 0.00 | 72 | 1020.3 |
| 20260831144959 | 67 | 0.0 | 0.0 | 0.00 | 0.00 | 0.00 | 78 | 1020.2 | |
| 20260831143945 | 66 | 0.0 | 0.0 | 0.00 | 0.00 | 0.00 | 79 | 1020.3 | |
| 20260831142931 | 62 | 0.0 | 1.0 | 0.00 | 0.00 | 0.00 | 92 | 1020.3 | |
| 20260831141950 | 62 | 0.0 | 0.0 | 0.00 | 0.00 | 0.00 | 97 | 1020.2 | |
| 20260831140936 | 62 | 0.0 | 0.0 | 0.00 | 0.00 | 0.00 | 98 | 1020.2 | |
| 20260831140015 | 62 | 296 | 0.0 | 1.0 | 0.00 | 0.00 | 0.00 | 98 | 1020.1 |
| 20260831134941 | 62 | 0.0 | 0.0 | 0.00 | 0.00 | 0.00 | 99 | 1020.3 | |
| 20260831134000 | 62 | 0.0 | 0.0 | 0.00 | 0.00 | 0.00 | 99 | 1020.1 | |
| 20260831132946 | 61 | 0.0 | 0.0 | 0.00 | 0.00 | 0.00 | 99 | 1020.2 | |
| 20260831131932 | 62 | 0.0 | 0.0 | 0.00 | 0.00 | 0.00 | 99 | 1020.0 | |
| 20260831130952 | 62 | 0.0 | 0.0 | 0.00 | 0.00 | 0.00 | 99 | 1020.1 | |
| 20260831125937 | 62 | 0.0 | 0.0 | 0.00 | 0.00 | 0.00 | 99 | 1020.3 | |
| 20260831124957 | 62 | 0.0 | 0.0 | 0.00 | 0.00 | 0.00 | 99 | 1020.0 | |
| 20260831123943 | 63 | 0.0 | 0.0 | 0.00 | 0.00 | 0.00 | 99 | 1020.0 | |
| 20260831123002 | 63 | 0.0 | 0.0 | 0.00 | 0.00 | 0.00 | 99 | 1020.0 | |
| 20260831121949 | 63 | 0.0 | 0.0 | 0.00 | 0.00 | 0.00 | 99 | 1019.7 | |
| 20260831121008 | 63 | 0.0 | 0.0 | 0.00 | 0.00 | 0.00 | 99 | 1019.5 | |
| 20260831115954 | 62 | 0.0 | 0.0 | 0.00 | 0.00 | 0.00 | 99 | 1019.7 | |
| 20260831114940 | 62 | 0.0 | 0.0 | 0.00 | 0.00 | 0.00 | 99 | 1019.6 | |
| 20260831114019 | 62 | 0.0 | 0.0 | 0.00 | 0.00 | 0.00 | 99 | 1019.5 | |
| 20260831112946 | 62 | 0.0 | 0.0 | 0.00 | 0.00 | 0.00 | 99 | 1019.6 | |
| 20260831112005 | 62 | 0.0 | 0.0 | 0.00 | 0.00 | 0.00 | 99 | 1019.4 | |
| 20260831110951 | 61 | 0.0 | 0.0 | 0.00 | 0.00 | 0.00 | 99 | 1019.4 | |
| 20260831105937 | 61 | 0.0 | 0.0 | 0.00 | 0.00 | 0.00 | 99 | 1019.4 | |
| 20260831104957 | 61 | 0.0 | 0.0 | 0.00 | 0.00 | 0.00 | 99 | 1019.2 | |
| 20260831103942 | 61 | 0.0 | 0.0 | 0.00 | 0.00 | 0.00 | 99 | 1018.9 | |
| 20260831103002 | 61 | 0.0 | 0.0 | 0.00 | 0.00 | 0.00 | 99 | 1019.1 | |
| 20260831102008 | 61 | 0.0 | 0.0 | 0.00 | 0.00 | 0.00 | 98 | 1018.8 | |
| 20260831101007 | 61 | 0.0 | 0.0 | 0.00 | 0.00 | 0.00 | 98 | 1018.7 | |
| 20260831095953 | 62 | 0.0 | 0.0 | 0.00 | 0.00 | 0.00 | 98 | 1018.6 | |
| 20260831095013 | 62 | 0.0 | 0.0 | 0.00 | 0.00 | 0.00 | 98 | 1018.4 | |
| 20260831093959 | 62 | 0.0 | 0.0 | 0.00 | 0.00 | 0.00 | 98 | 1018.3 | |
| 20260831093045 | 62 | 0.0 | 0.0 | 0.00 | 0.00 | 0.00 | 98 | 1018.3 | |
| 20260831092004 | 63 | 0.0 | 0.0 | 0.00 | 0.00 | 0.00 | 98 | 1018.3 | |
| 20260831091030 | 63 | 0.0 | 0.0 | 0.00 | 0.00 | 0.00 | 98 | 1018.0 | |
| 20260831090010 | 63 | 0.0 | 0.0 | 0.00 | 0.00 | 0.00 | 98 | 1018.0 | |
| 20260831085102 | 63 | 0.0 | 0.0 | 0.00 | 0.00 | 0.00 | 98 | 1018.3 | |
| 20260831083942 | 63 | 0.0 | 0.0 | 0.00 | 0.00 | 0.00 | 98 | 1018.1 | |
| 20260831083001 | 63 | 0.0 | 0.0 | 0.00 | 0.00 | 0.00 | 98 | 1017.9 | |
| 20260831082027 | 63 | 0.0 | 0.0 | 0.00 | 0.00 | 0.00 | 98 | 1017.8 | |
| 20260831081007 | 64 | 0.0 | 0.0 | 0.00 | 0.00 | 0.00 | 98 | 1017.9 | |
| 20260831075953 | 63 | 0.0 | 0.0 | 0.00 | 0.00 | 0.00 | 98 | 1017.8 | |
| 20260831075012 | 64 | 0.0 | 0.0 | 0.00 | 0.00 | 0.00 | 98 | 1017.6 | |
| 20260831073959 | 64 | 0.0 | 0.0 | 0.00 | 0.00 | 0.00 | 98 | 1017.4 | |
| 20260831072945 | 64 | 0.0 | 0.0 | 0.00 | 0.00 | 0.00 | 98 | 1017.2 | |
| 20260831072004 | 64 | 0.0 | 0.0 | 0.00 | 0.00 | 0.00 | 98 | 1017.3 | |
| 20260831070950 | 64 | 0.0 | 0.0 | 0.00 | 0.00 | 0.00 | 98 | 1017.2 | |
| 20260831070008 | 64 | 0.0 | 0.0 | 0.00 | 0.00 | 0.00 | 98 | 1017.3 | |
| 20260831065015 | 65 | 0.0 | 0.0 | 0.00 | 0.00 | 0.00 | 98 | 1017.2 | |
| 20260831064014 | 65 | 0.0 | 0.0 | 0.00 | 0.00 | 0.00 | 98 | 1017.1 | |
| 20260831063000 | 65 | 0.0 | 0.0 | 0.00 | 0.00 | 0.00 | 98 | 1017.1 | |
| 20260831061946 | 65 | 0.0 | 0.0 | 0.00 | 0.00 | 0.00 | 98 | 1017.3 | |
| 20260831061005 | 65 | 0.0 | 0.0 | 0.00 | 0.00 | 0.00 | 97 | 1017.1 | |
| 20260831055951 | 66 | 0.0 | 0.0 | 0.00 | 0.00 | 0.00 | 97 | 1017.1 | |
| 20260831055011 | 66 | 0.0 | 0.0 | 0.00 | 0.00 | 0.00 | 97 | 1017.1 | |
| 20260831053957 | 66 | 0.0 | 0.0 | 0.00 | 0.00 | 0.00 | 97 | 1016.7 | |
| 20260831053016 | 66 | 0.0 | 0.0 | 0.00 | 0.00 | 0.00 | 97 | 1016.8 | |
| 20260831052022 | 67 | 0.0 | 0.0 | 0.00 | 0.00 | 0.00 | 97 | 1016.7 | |
| 20260831051102 | 67 | 0.0 | 0.0 | 0.00 | 0.00 | 0.00 | 97 | 1016.6 | |
| 20260831050008 | 67 | 0.0 | 0.0 | 0.00 | 0.00 | 0.00 | 97 | 1016.6 | |
| 20260831045014 | 67 | 0.0 | 0.0 | 0.00 | 0.00 | 0.00 | 97 | 1016.7 | |
| 20260831044033 | 68 | 0.0 | 0.0 | 0.00 | 0.00 | 0.00 | 97 | 1016.7 | |
| 20260831043000 | 68 | 0.0 | 0.0 | 0.00 | 0.00 | 0.00 | 97 | 1016.8 | |
| 20260831042019 | 68 | 0.0 | 0.0 | 0.00 | 0.00 | 0.00 | 96 | 1016.6 | |
| 20260831041005 | 68 | 0.0 | 0.0 | 0.00 | 0.00 | 0.00 | 96 | 1016.7 | |
| 20260831040024 | 68 | 0.0 | 0.0 | 0.00 | 0.00 | 0.00 | 96 | 1016.5 | |
| 20260831035010 | 68 | 0.0 | 0.0 | 0.00 | 0.00 | 0.00 | 95 | 1016.6 | |
| 20260831034017 | 68 | 293 | 0.0 | 1.0 | 0.00 | 0.00 | 0.00 | 95 | 1016.4 |
| 20260831033036 | 69 | 289 | 1.0 | 1.0 | 0.00 | 0.00 | 0.00 | 94 | 1016.7 |
| 20260831032002 | 69 | 0.0 | 0.0 | 0.00 | 0.00 | 0.00 | 93 | 1017.1 | |
| 20260831031020 | 70 | 289 | 0.0 | 1.0 | 0.00 | 0.00 | 0.00 | 91 | 1016.9 |
| 20260831030006 | 71 | 285 | 1.0 | 2.0 | 0.00 | 0.00 | 0.00 | 88 | 1017.0 |
| 20260831025012 | 72 | 292 | 2.0 | 5.0 | 0.00 | 0.00 | 0.00 | 84 | 1016.6 |
| 20260831024011 | 73 | 258 | 1.0 | 2.0 | 0.00 | 0.00 | 0.00 | 83 | 1016.7 |
| 20260831023017 | 73 | 0.0 | 0.0 | 0.00 | 0.00 | 0.00 | 82 | 1016.7 | |
| 20260831022017 | 73 | 284 | 0.0 | 1.0 | 0.00 | 0.00 | 0.00 | 80 | 1016.5 |
| 20260831021023 | 73 | 0.0 | 0.0 | 0.00 | 0.00 | 0.00 | 79 | 1016.5 | |
| 20260831020022 | 73 | 283 | 0.0 | 1.0 | 0.00 | 0.00 | 0.00 | 78 | 1016.5 |
| 20260831015008 | 73 | 289 | 0.0 | 2.0 | 0.00 | 0.00 | 0.00 | 78 | 1016.5 |
| 20260831014027 | 73 | 287 | 0.0 | 2.0 | 0.00 | 0.00 | 0.00 | 77 | 1016.4 |
| 20260831013014 | 73 | 282 | 1.0 | 1.0 | 0.00 | 0.00 | 0.00 | 76 | 1016.3 |
| 20260831012000 | 74 | 287 | 1.0 | 1.0 | 0.00 | 0.00 | 0.00 | 76 | 1016.0 |
| 20260831011019 | 74 | 282 | 1.0 | 2.0 | 0.00 | 0.00 | 0.00 | 75 | 1016.1 |
| 20260831010005 | 74 | 286 | 0.0 | 3.0 | 0.00 | 0.00 | 0.00 | 74 | 1016.1 |
| 20260831005025 | 74 | 252 | 2.0 | 3.0 | 0.00 | 0.00 | 0.00 | 73 | 1016.0 |
| 20260831004011 | 74 | 279 | 1.0 | 3.0 | 0.00 | 0.00 | 0.00 | 72 | 1016.1 |
| 20260831003030 | 74 | 268 | 1.0 | 2.0 | 0.00 | 0.00 | 0.00 | 71 | 1016.0 |
| 20260831002016 | 74 | 271 | 2.0 | 3.0 | 0.00 | 0.00 | 0.00 | 70 | 1015.7 |
| 20260831001002 | 74 | 237 | 2.0 | 7.0 | 0.00 | 0.00 | 0.00 | 69 | 1015.7 |
| 20260831000021 | 74 | 256 | 1.0 | 2.0 | 0.00 | 0.00 | 0.00 | 69 | 1015.6 |
| 20260830235008 | 75 | 279 | 1.0 | 2.0 | 0.00 | 0.00 | 0.00 | 69 | 1015.6 |
| 20260830234027 | 75 | 249 | 3.0 | 3.0 | 0.00 | 0.00 | 0.00 | 67 | 1015.6 |
| 20260830233013 | 75 | 236 | 2.0 | 3.0 | 0.00 | 0.00 | 0.00 | 66 | 1015.6 |
| 20260830231926 | 75 | 265 | 1.0 | 3.0 | 0.00 | 0.00 | 0.00 | 66 | 1015.7 |
| 20260830230912 | 76 | 234 | 3.0 | 5.0 | 0.00 | 0.00 | 0.00 | 65 | 1015.7 |
| 20260830225932 | 76 | 238 | 2.0 | 3.0 | 0.00 | 0.00 | 0.00 | 64 | 1015.7 |
| 20260830224918 | 76 | 261 | 2.0 | 5.0 | 0.00 | 0.00 | 0.00 | 63 | 1016.1 |
| 20260830223944 | 76 | 230 | 3.0 | 5.0 | 0.00 | 0.00 | 0.00 | 62 | 1016.0 |
| 20260830222924 | 77 | 280 | 1.0 | 2.0 | 0.00 | 0.00 | 0.00 | 61 | 1016.1 |
| 20260830221910 | 77 | 258 | 1.0 | 5.0 | 0.00 | 0.00 | 0.00 | 60 | 1016.0 |
| 20260830220929 | 77 | 233 | 2.0 | 5.0 | 0.00 | 0.00 | 0.00 | 59 | 1016.0 |
| 20260830215915 | 77 | 270 | 1.0 | 1.0 | 0.00 | 0.00 | 0.00 | 59 | 1016.0 |
| 20260830214934 | 78 | 279 | 0.0 | 2.0 | 0.00 | 0.00 | 0.00 | 58 | 1016.2 |
| 20260830213920 | 78 | 0.0 | 2.0 | 0.00 | 0.00 | 0.00 | 57 | 1016.1 | |
| 20260830212906 | 78 | 278 | 1.0 | 1.0 | 0.00 | 0.00 | 0.00 | 57 | 1016.2 |